Погода в Щербакуле

Погода в Щербакуле : погода сейчас, прогноз погоды и архив. Всё, что Вы хотите узнать о погоде в Щербакуле!

Хотите узнать прогноз погоды в Щербакуле? Тогда Вам сюда: Погода в Щербакуле

Поиск расширенной информации на нашем сайте:

Другие новости

Новости СМИ2

Главная страница сайта

Новости сайта

03.07.2017

Напоминаем, что на нашем специализированном сайте Метеоцентр.Азия вы можете получить высокодетализированные автоматические прогнозы погоды по пунктам России, СНГ и мира в авиационном формате (включающие направление и скорость ветра, видимость, явления погоды, количество и форму облачности, нижнюю и верхнюю границу облачности).

Рекомендуем: http://www.italyvisa.ru Документы необходимые для оформления визы в Италию

Погода в Щербакуле - сегодня

Время (UTC), дата Ветер
(°,м/с) 
Видим.   Явления Облачность Т
(°С)
Тd
(°С)
f(%) Тe
(°С)
Pmin
(гПа)
dP
(гПа)
Po
(мм)
O2
(г/м3)
Тmin Tmax R s Состояние
почвы
18 17.05.18 180 (Ю) 20000 м    4/0 средняя 
[Ac lent]
+3.9 -6.5 47 +3  1016.1  -1.2  752  299           
21 17.05.18 230 (ЮЗ) 20000 м    10/0 верхняя 
[Cs]
+4.3 -5.1 50 +2  1013.4  -2.7  750  298           
00 18.05.18 230 (ЮЗ) 6{10}  20000 м    10/4 600 м верхняя 
[Sc|Cs]
+4 -4 56 +1  1010.5  -2.8  747  297           
03 18.05.18 250 (З) 8-11{12}  20000 м    10/6 600 м верхняя 
[Sc|Cs]
+10.1 -0.7 47 +8  1007.7  -2.5  746  290  -0        сухая 
15 18.05.18 350 (С) 6-10{14}  20000 м    ясно 
+3.2 -9.1 40 1017  3.2  752  300    +14.9  0.0     
18 18.05.18 350 (С) 3{10}  20000 м    ясно 
+0.6 -7.5 55 -1  1020.2  754  304           
21 18.05.18 340 (С) 20000 м    ясно 
-0.3 -7.8 57 -3  1021.7  1.4  755  306           
00 19.05.18 320 (СЗ) 20000 м    ясно 
-1.7 -7.6 64 -4  1024.6  2.8  758  308           
03 19.05.18 330 (СЗ) 20000 м    ясно 
+3.2 -8.8 41 +1  1026.5  759  303  -2.3        сухая 
06 19.05.18 320 (СЗ) 20000 м    1/0 верхняя 
[Ci fib]
+7.1 -12.6 23 +6  1027.1  0.8  760  299           
09 19.05.18 320 (СЗ) 20000 м    3/0 верхняя 
[Ci fib]
+10.6 -12.7 18 +10  1026.9  760  296           
12 19.05.18 310 (СЗ) 20000 м    3/0 верхняя 
[Ci fib]
+12.4 -12.4 16 +12  1026.5  -0.3  760  294           
15 19.05.18 250 (З) 20000 м    3/0 верхняя 
[Ci fib]
+10 -11.5 21 +11  1026.2  -0.4  759  296    +12.6       
18 19.05.18 010 (С) 20000 м    ясно 
+4 -9.8 36 +4  1026.4  0.1  759  302           
21 19.05.18 180 (Ю) 20000 м    10/0 средняя 
[Ac lent]
+4.1 -4.9 52 +5  1025.8  -0.6  759  302           
00 20.05.18 170 (Ю) 4000 м  слаб. дождь  10/0 средняя 
[As op]
+4.5 -0.1 72 +4  1024.4  -1.3  758  300           
03 20.05.18 180 (Ю) 20000 м  {дождь}  10/0 средняя 
[As op]
+9.3 +0.6 54 +8  1023.2  -1  757  295  +2.3    0.6    влажная 
15 20.05.18 250 (З) 6{14}  20000 м    8/0 средняя, верхняя 
[Ac lent|Cs]
+22.4 +5 32 +22  1013.2  -1.4  750  279    +23.9  0.0     
18 20.05.18 230 (ЮЗ) 20000 м    8/0 верхняя 
[Cs]
+17 +4.4 43 +17  1013.4  -1.4  750  284           
21 20.05.18 250 (З) 20000 м    6/0 верхняя 
[Ci fib]
+16.4 +4.6 45 +16  1012.3  -1.1  749  284           
00 21.05.18 230 (ЮЗ) 20000 м    8/0 верхняя 
[Cs]
+17 +4.4 43 +17  1013.4  -0.1  750  284           
03 21.05.18 260 (З) 6-11{13}  20000 м    9/0 средняя, верхняя 
[Ac cast|Ci sp]
+21.7 +5.1 34 +22  1012.1  0.3  749  279  +14.6         
15 21.05.18 360 (С) 4{12}  20000 м    10/3 600 м верхняя 
[Sc diur, vesp|Cs]
+20.5 +9 48 +21  1012.9  1.5  750  279    +27.4       
18 21.05.18 340 (С) 20000 м    6/0 верхняя 
[Cs]
+15.5 +9.5 67 +17  1013.5  0.3  750  284           
21 21.05.18 010 (С) 20000 м    8/0 верхняя 
[Cs]
+11.3 +5.5 67 +11  1014.3  0.6  751  290           
Время (UTC), дата Ветер
(°,м/с) 
Видим.   Явления Облачность Т
(°С)
Тd
(°С)
f(%) Тe
(°С)
Pmin
(гПа)
dP
(гПа)
Po
(мм)
O2
(г/м3)
Тmin Tmax R s Состояние
почвы

Для получения пояснительной информации подведите курсор к названию столбца.

ПОГОДА в Щербакуле - архив

Всё, что Вы хотите узнать о погоде в Щербакуле - удобно и подробно!

Выберите нужную дату (начиная с 1 января 2015* года) и нажмите кнопку "Найти".
Будут отображены архивные сводки погоды по пункту Щербакуль, начиная с указанной даты.


Отображать данные в формате CSV (для использования в таблицах Excel)


Внимание! Наш архив погоды предназначен исключительно для личного некоммерческого использования в познавательных целях. Если Вам необходимы официальные справки о состоянии погоды (для производственных, юридических, коммерческих и т.п. целей), обращайтесь в органы Росгидромета.

*Примечание: данная дата относится к архиву по метеостанциям СССР (Россия, СНГ, Балтия).
Архив по метеостанциям Зарубежной Европы и Азии (кроме Китая) хранится 10 дней, по другим регионам земного шара (Китай, Африка, Америка, Австралия, Океания) - 1 день.

Щербакуль - район местоположения метеостанции


Название, широта, долгота, высота метеостанции:
Щербакуль 54.6°ш. 72.4°д. 115 м над ур. моря [Российская Федерация]

Дополнительная информация

В oтличие oт бoльшинства пoгoдных сайтoв мы публикуем пoдрoбную метеoинфoрмацию в детальнoм прoфессиoнальнoм фoрмате.

Характеристики температуры и влажнoсти вoздуха измеряются на высoте 2 м в тени вдали oт зданий и деревьев.
Скoрoсть ветра измеряется на высoте 10 м (на урoвне рoста челoвека скoрoсть ветра ниже в 1.5-2 раза). Если метеoстанция нахoдится в гoрoде или в лесу, тo скoрoсть ветра занижена на 2-4 м/с пo сравнению с oткрытым местoм. Скoрoсть ветра над акватoриями крупных рек и oзёр, а также на вершинах хoлмoв на 2-5 м/с выше, чем в oбычных услoвиях.
Атмoсфернoе давление в разных тoчках местнoсти мoжет значительнo oтличаться oт давления на метеoстанции, в зависимoсти oт услoвий рельефа (при пoдъёме на 10 м давление пoнижается примернo на 1 мм рт.ст.).